Temp
76 76 81 81 81 82 80 80 78 75 75 75 75 74 72 74 74 74 74 72 72 71 70 70 69 70 75 75 76 75 74 72 70 72 74 73 70 69 70 72 73 74 73
80 76 77 79 81 75 76 74 73 71 73 75 75 75 74 74 74 73 73 73 72 70 70 70 69 72 69 71 75 68 70 70 69 65 69 72 69 70 70 69 72 75 74
78 75 73 73 73 72 71 69 69 68 70 74 76 75 74 75 74 75 74 73 72 71 70 70 69 69 68 70 70 72 73 72 72 70 69 72 72 71 70 70 70 71 74
73 71 71 71 72 69 69 64 67 67 68 72 74 76 75 76 75 75 74 72 70 70 69 70 70 69 68 68 69 69 69 71 71 71 70 70 70 69 70 68 69 72 70
70 68 68 69 70 69 66 66 68 69 68 72 72 74 75 75 76 73 72 70 68 68 68 70 67 61 56 57 67 67 68 70 71 71 69 69 66 66 64 68 68 69 70
69 68 66 67 66 66 64 66 63 66 68 69 72 72 72 76 53 57 66 69 68 67 66 67 66 60 57 53 54 54 55 64 64 66 67 64 62 63 65 65 65 65 63
68 67 65 64 64 64 64 63 61 62 65 65 69 72 71 69 51 53 57 68 67 66 66 66 70 68 65 67 54 53 53 53 54 64 62 61 61 61 62 62 62 64 65
69 66 66 65 61 62 59 60 59 61 63 62 69 70 70 66 50 50 55 67 66 66 66 66 66 65 63 66 68 66 66 65 64 68 63 62 61 61 62 65 64 66 70
69 65 66 66 61 59 58 59 59 61 61 63 69 68 66 61 48 50 60 66 65 64 67 67 66 65 45 48 66 65 65 64 53 51 50 49 47 47 53 67 65 66 64
67 64 68 66 62 59 60 58 59 60 60 66 68 68 61 61 48 48 61 69 64 66 65 62 46 57 45 47 66 66 63 63 66 66 66 61 58 58 54 63 66 62 63
66 65 66 64 63 61 58 59 58 58 62 66 66 65 65 61 56 49 51 69 67 68 67 66 62 44 44 47 51 64 59 62 58 68 68 68 68 67 67 66 63 64 61
63 63 62 62 61 58 57 56 56 58 61 63 63 64 66 62 53 47 49 55 59 68 67 66 56 42 42 44 55 43 46 49 69 69 66 65 65 65 66 66 63 64 64
61 60 60 61 59 57 56 57 55 57 61 61 64 64 63 64 60 45 45 48 51 66 68 52 43 42 43 48 45 47 46 68 67 66 64 64 65 64 65 66 66 65 64
59 57 56 56 55 55 56 55 55 55 56 59 64 64 63 63 63 61 61 60 51 57 50 55 52 51 48 56 56 62 66 66 65 65 64 66 68 66 65 66 65 65 64
57 55 54 54 53 53 53 55 55 56 58 65 69 67 65 62 63 58 59 64 62 59 59 59 61 63 63 64 64 64 65 66 64 65 65 65 65 66 64 66 65 64 61
54 54 52 53 52 49 50 47 39 43 44 46 51 61 65 54 47 45 45 44 45 46 61 63 63 64 64 64 63 63 63 60 64 65 64 64 63 63 64 64 65 62 61
54 53 53 52 50 48 48 47 43 43 41 40 42 45 49 48 43 42 42 43 44 45 63 64 63 63 63 64 64 64 62 62 63 64 63 62 63 63 63 62 62 62 61
55 50 53 51 52 51 51 49 47 45 47 49 43 46 40 40 40 40 41 45 53 54 65 63 62 62 63 63 63 62 62 62 63 63 62 62 62 62 61 60 60 59 60
54 54 53 53 53 55 52 49 49 52 52 52 51 46 41 39 39 41 43 62 62 63 64 63 63 62 63 63 62 62 62 62 62 62 62 61 62 63 61 62 58 45 49
53 48 50 53 52 52 54 52 54 55 55 54 58 52 51 49 52 55 61 64 64 63 63 62 62 62 62 62 61 61 60 60 61 62 61 61 61 62 61 61 60 59 59
52 51 45 52 53 54 55 58 58 57 57 57 57 54 45 59 58 59 62 64 63 63 62 62 63 62 62 62 62 62 62 61 61 61 61 61 61 60 61 61 61 59 59
52 51 52 52 53 57 58 60 60 61 61 59 58 53 39 62 60 61 62 62 62 63 63 63 63 63 64 63 62 62 61 61 61 61 61 61 61 62 62 61 60 59 59
51 51 52 53 54 49 60 61 62 61 60 59 57 56 56 59 60 61 61 62 62 62 62 62 62 62 62 62 63 64 63 61 61 62 60 60 60 60 61 60 59 57 56
50 50 50 52 53 61 61 59 61 54 60 58 56 57 60 60 60 60 61 61 61 61 61 61 62 61 59 60 61 63 62 61 61 61 61 60 58 55 59 59 58 56 57
49 50 50 53 56 58 57 60 58 58 57 56 54 58 61 61 61 61 61 61 60 60 60 60 59 58 58 59 60 60 40 34 53 39 62 60 58 56 59 59 58 57 56
48 48 50 56 61 59 59 59 59 57 55 54 55 58 61 62 62 60 60 59 59 59 58 58 58 58 57 59 57 37 33 34 45 36 59 60 58 58 58 56 55 57 55
MSLP
1001.83 1002.67 1003.00 1003.76 1004.59 1004.61 1004.30 1005.91 1007.20 1008.55 1009.48 1010.27 1011.06 1012.04 1012.36 1013.28 1013.77 1013.70 1014.57 1014.82 1015.72 1016.28 1016.49 1016.62 1016.98 1016.99 1016.50 1016.44 1016.60 1016.58 1016.22 1016.14 1015.55 1015.68 1015.80 1016.34 1016.21 1015.98 1015.82 1015.16 1014.48 1014.06 1013.95
1001.14 1001.86 1002.63 1003.36 1003.74 1004.60 1004.57 1006.17 1007.57 1008.70 1009.62 1010.19 1011.22 1011.85 1012.34 1013.20 1013.77 1014.08 1014.36 1014.58 1015.91 1016.38 1016.59 1016.76 1017.05 1017.06 1017.19 1017.17 1016.63 1017.14 1016.90 1016.87 1016.77 1016.33 1016.30 1015.95 1015.86 1015.58 1015.37 1014.95 1014.79 1014.09 1013.72
1000.63 1001.59 1002.38 1003.26 1004.15 1004.54 1005.26 1006.46 1007.74 1008.74 1009.68 1010.60 1011.08 1011.79 1012.30 1013.15 1013.43 1014.23 1014.35 1014.71 1015.88 1016.43 1016.70 1016.88 1016.99 1017.08 1017.24 1017.27 1017.27 1017.04 1017.05 1017.02 1016.78 1016.31 1015.70 1015.95 1015.64 1015.62 1014.94 1014.74 1014.60 1014.14 1013.70
1000.30 1001.10 1001.97 1003.10 1003.74 1004.33 1005.54 1006.36 1007.55 1009.10 1009.84 1010.84 1011.34 1011.98 1012.30 1012.93 1013.20 1014.20 1014.40 1015.16 1016.08 1016.50 1016.80 1016.96 1017.20 1017.22 1017.38 1017.58 1017.67 1017.82 1017.50 1016.99 1017.14 1016.68 1016.21 1015.84 1016.01 1015.99 1015.36 1014.65 1014.45 1014.30 1014.00
1000.08 1001.00 1001.87 1002.70 1003.32 1003.86 1005.35 1006.14 1007.98 1009.18 1010.08 1010.82 1011.62 1012.24 1012.37 1012.88 1013.14 1014.02 1014.62 1015.59 1016.16 1016.52 1016.92 1017.17 1017.72 1018.22 1018.27 1018.44 1018.11 1018.28 1017.91 1017.19 1016.96 1016.54 1016.46 1016.12 1016.39 1016.40 1016.23 1015.46 1014.91 1014.74 1014.21
999.70 1000.54 1000.73 1001.96 1003.56 1004.26 1005.50 1006.76 1008.44 1009.09 1009.93 1010.50 1011.45 1012.34 1012.37 1012.84 1013.77 1014.44 1014.55 1015.64 1016.15 1016.38 1017.04 1017.47 1017.98 1018.32 1018.54 1018.86 1019.32 1019.52 1019.36 1018.85 1018.58 1017.66 1017.28 1017.46 1017.51 1017.44 1016.98 1016.36 1015.78 1015.34 1014.62
999.34 1000.44 1001.50 1002.38 1003.40 1004.60 1005.85 1007.36 1008.27 1008.74 1010.05 1010.16 1011.57 1011.96 1012.56 1013.19 1014.52 1014.78 1014.98 1016.11 1015.98 1016.52 1017.25 1017.34 1017.21 1018.13 1018.52 1018.70 1019.34 1019.48 1019.83 1019.61 1019.36 1018.90 1018.64 1018.41 1018.24 1018.00 1017.56 1016.74 1016.67 1015.52 1015.18
999.21 1000.40 1001.40 1002.47 1003.68 1004.94 1006.05 1007.38 1008.48 1008.85 1009.98 1010.29 1011.24 1011.98 1012.41 1014.02 1014.97 1015.15 1015.42 1016.15 1016.23 1016.93 1017.16 1017.56 1017.84 1018.25 1018.53 1018.75 1018.73 1018.89 1019.64 1019.64 1019.40 1019.14 1019.58 1019.38 1019.24 1019.18 1018.50 1017.01 1016.78 1015.61 1014.79
999.04 1000.09 1001.11 1002.29 1003.46 1004.82 1005.88 1007.18 1007.62 1009.03 1010.02 1010.26 1011.26 1011.82 1012.86 1014.83 1015.26 1015.24 1015.45 1016.04 1016.44 1017.08 1017.27 1017.78 1017.98 1018.64 1019.37 1019.48 1019.22 1019.08 1019.72 1019.78 1020.32 1020.10 1020.36 1020.14 1019.88 1019.88 1018.94 1017.41 1016.59 1015.73 1015.40
998.56 999.86 1000.92 1002.16 1003.25 1004.66 1005.88 1006.68 1007.74 1009.28 1009.86 1010.05 1011.15 1011.93 1013.49 1014.74 1015.23 1015.48 1015.56 1015.71 1016.34 1016.82 1017.73 1018.39 1018.60 1019.30 1019.61 1019.48 1019.16 1019.15 1019.51 1019.46 1018.96 1019.22 1019.57 1019.47 1019.15 1019.33 1019.06 1018.24 1017.62 1016.63 1016.32
998.72 999.84 1000.80 1001.98 1003.32 1004.46 1005.76 1007.14 1007.55 1009.07 1009.88 1010.34 1010.99 1012.40 1013.54 1014.49 1015.36 1015.53 1015.57 1015.65 1016.08 1016.48 1017.28 1017.96 1019.17 1020.22 1020.18 1020.22 1020.08 1019.84 1019.84 1019.60 1019.31 1019.06 1018.56 1018.86 1018.67 1018.40 1018.20 1018.64 1018.87 1018.09 1017.81
998.95 999.90 1001.06 1002.19 1003.53 1004.76 1005.67 1007.30 1008.07 1009.04 1010.37 1010.59 1011.32 1012.42 1013.60 1014.60 1015.49 1015.86 1015.87 1015.78 1016.16 1016.42 1016.99 1018.20 1019.81 1020.50 1020.54 1020.68 1021.16 1021.34 1020.28 1020.03 1018.66 1018.89 1018.88 1018.88 1018.95 1018.91 1018.78 1018.90 1019.63 1019.32 1019.05
998.67 999.88 1001.17 1002.32 1003.64 1004.50 1005.72 1007.43 1007.87 1008.99 1010.48 1010.94 1011.38 1012.11 1013.11 1014.39 1015.56 1016.10 1016.29 1016.52 1016.80 1016.89 1017.62 1018.96 1020.02 1020.70 1020.63 1020.88 1021.45 1021.44 1020.35 1019.36 1018.85 1018.89 1019.14 1019.15 1019.32 1019.71 1019.16 1018.88 1018.95 1019.05 1019.03
998.76 999.90 1001.40 1002.59 1003.76 1004.81 1006.26 1007.06 1008.51 1008.98 1009.70 1010.80 1011.26 1011.68 1012.75 1013.68 1015.02 1016.18 1016.76 1017.32 1017.40 1017.82 1018.91 1019.66 1020.18 1020.58 1020.18 1020.55 1020.62 1020.64 1020.10 1020.06 1019.66 1019.31 1019.28 1019.16 1019.00 1018.96 1019.01 1019.02 1018.93 1018.86 1018.51
999.28 1000.32 1001.54 1003.05 1004.13 1005.68 1006.77 1007.84 1008.23 1009.14 1009.24 1009.90 1010.57 1011.08 1012.09 1013.19 1014.39 1015.38 1016.35 1016.77 1017.26 1017.92 1018.73 1019.44 1019.60 1019.74 1019.68 1019.80 1020.10 1020.14 1020.17 1020.20 1020.01 1019.81 1019.84 1019.52 1019.30 1019.17 1019.15 1019.53 1019.26 1019.24 1019.07
999.78 1000.80 1001.72 1002.92 1004.45 1005.84 1006.93 1008.74 1009.17 1009.18 1009.53 1010.36 1010.80 1011.54 1012.34 1013.19 1014.60 1015.77 1016.59 1016.81 1017.47 1018.29 1018.26 1018.21 1018.74 1018.92 1019.10 1019.43 1019.62 1019.95 1020.20 1020.42 1020.56 1020.63 1020.42 1019.86 1019.61 1019.72 1019.74 1020.02 1019.80 1019.80 1019.63
999.54 1000.72 1001.89 1003.30 1004.35 1005.73 1006.94 1008.06 1009.04 1009.87 1011.09 1011.81 1012.10 1012.23 1013.09 1014.23 1015.36 1016.13 1016.70 1017.30 1018.10 1018.49 1017.63 1017.96 1018.40 1018.76 1019.29 1019.26 1019.32 1019.69 1020.32 1020.85 1020.95 1020.82 1020.66 1020.44 1020.19 1020.25 1020.08 1020.36 1020.22 1019.81 1019.94
999.56 1000.77 1001.97 1003.00 1004.18 1005.12 1006.24 1007.23 1008.35 1009.86 1011.67 1013.24 1013.76 1013.40 1014.26 1015.07 1015.75 1016.49 1017.11 1018.04 1018.76 1018.49 1017.62 1017.87 1018.29 1018.73 1019.00 1019.41 1019.56 1019.74 1020.39 1020.85 1020.84 1021.03 1021.09 1020.60 1020.47 1020.26 1020.48 1020.96 1020.94 1020.60 1020.42
999.73 1000.79 1001.80 1002.60 1003.97 1004.97 1006.11 1007.29 1008.65 1010.01 1011.14 1012.62 1013.93 1014.78 1015.62 1015.96 1016.28 1016.86 1017.26 1017.29 1017.23 1017.28 1017.64 1018.19 1018.42 1018.82 1019.07 1019.39 1019.76 1020.26 1020.56 1020.89 1020.99 1021.43 1021.29 1020.84 1020.84 1020.75 1020.79 1021.23 1021.76 1021.61 1021.16
999.99 1000.81 1001.70 1002.71 1003.88 1005.10 1005.98 1006.78 1007.25 1008.84 1010.49 1011.95 1012.87 1014.32 1015.54 1016.24 1016.70 1017.20 1016.80 1016.69 1016.79 1017.20 1017.76 1018.20 1018.48 1018.90 1019.37 1019.73 1020.12 1020.54 1021.31 1021.51 1021.48 1021.54 1021.49 1021.30 1021.34 1021.20 1021.18 1021.60 1021.69 1021.47 1021.23
1000.12 1001.32 1001.83 1002.87 1003.76 1004.38 1004.85 1005.99 1007.02 1008.07 1009.73 1011.33 1012.62 1013.78 1014.73 1015.02 1015.73 1016.17 1016.10 1016.56 1016.88 1017.24 1017.89 1018.17 1018.38 1018.89 1019.44 1019.89 1019.99 1020.21 1020.91 1021.18 1021.44 1021.47 1021.44 1021.51 1021.62 1021.74 1021.76 1021.86 1021.89 1022.09 1021.91
1000.46 1001.39 1001.80 1002.90 1003.46 1004.33 1004.66 1005.87 1007.05 1008.16 1009.44 1010.78 1012.19 1013.77 1014.84 1014.63 1015.09 1015.60 1016.11 1016.57 1017.13 1017.43 1017.88 1018.19 1018.40 1018.70 1019.12 1019.64 1020.21 1020.49 1020.93 1021.20 1021.60 1021.69 1021.66 1021.88 1021.85 1022.15 1022.18 1022.39 1022.27 1022.22 1022.21
1000.97 1001.55 1002.20 1003.06 1003.38 1004.77 1005.26 1006.26 1007.06 1008.10 1009.32 1010.68 1012.08 1013.46 1014.42 1014.40 1014.93 1015.42 1015.98 1016.68 1017.30 1017.72 1018.06 1018.22 1018.44 1018.88 1019.39 1019.97 1020.52 1020.69 1020.89 1021.38 1021.74 1021.80 1021.71 1021.94 1022.10 1022.46 1022.60 1022.82 1022.75 1022.74 1023.00
1001.35 1001.85 1002.36 1003.02 1004.20 1004.70 1005.53 1006.36 1007.25 1008.25 1009.37 1011.00 1012.08 1012.83 1013.37 1014.08 1014.80 1015.23 1015.96 1016.86 1017.33 1017.69 1018.17 1018.58 1018.82 1019.40 1020.05 1020.40 1020.84 1021.14 1021.70 1022.11 1022.20 1022.13 1021.91 1022.00 1022.60 1023.02 1022.76 1022.93 1023.28 1023.26 1023.14
1001.92 1002.09 1002.92 1003.77 1004.54 1005.56 1006.37 1006.76 1007.96 1009.06 1010.01 1011.05 1011.91 1012.36 1013.12 1013.94 1014.54 1015.03 1016.16 1016.84 1017.23 1017.62 1018.32 1019.02 1019.55 1020.03 1020.34 1020.58 1020.97 1021.66 1023.09 1023.46 1022.78 1023.34 1022.79 1022.62 1022.85 1023.07 1023.13 1023.35 1023.49 1023.63 1023.58
1002.65 1003.41 1003.87 1004.14 1005.02 1006.05 1006.50 1007.32 1008.08 1009.10 1009.95 1010.97 1011.74 1012.23 1012.80 1013.58 1014.36 1015.29 1015.92 1016.43 1017.23 1017.90 1018.62 1019.21 1019.80 1020.31 1020.64 1021.10 1021.88 1023.42 1024.00 1024.01 1023.90 1023.67 1023.23 1023.48 1023.30 1023.39 1023.52 1023.94 1024.08 1023.78 1023.95
Wind_Speed
24 21 21 19 20 17 15 16 14 14 15 14 14 14 14 13 12 11 10 12 10 8 7 6 5 3 2 3 2 2 3 4 5 6 6 7 8 10 11 11 11 10 6
24 16 18 18 18 15 17 16 16 14 13 15 15 14 15 14 13 13 12 13 10 8 7 6 5 4 4 2 2 3 4 3 7 5 6 7 8 10 10 11 10 9 10
19 18 17 16 17 16 17 17 14 13 12 14 15 15 15 15 14 13 13 13 10 8 6 6 6 5 4 5 4 2 1 2 3 4 5 6 7 9 11 10 9 9 9
17 17 18 18 18 16 15 15 14 14 13 13 14 14 15 15 15 14 13 13 10 9 7 6 5 5 5 4 4 1 3 3 1 4 5 5 8 10 9 10 9 9 8
14 15 15 16 14 17 15 16 16 17 14 14 14 14 15 14 12 15 14 13 11 10 8 7 8 8 10 8 7 5 4 4 4 4 5 6 8 10 11 10 10 10 9
14 14 14 15 14 16 17 17 15 16 15 15 16 15 15 11 15 11 14 12 11 10 8 8 8 9 9 9 8 8 9 7 6 7 6 8 10 10 9 10 9 11 10
12 14 15 15 16 18 17 17 16 16 14 13 14 16 16 15 13 12 14 11 11 10 8 7 6 8 4 9 7 7 6 6 5 6 7 8 8 10 9 9 10 10 8
15 15 16 18 17 17 18 16 14 15 14 13 15 16 14 13 14 13 14 13 12 10 9 7 8 7 6 2 5 6 6 6 6 7 7 7 8 10 10 10 8 9 5
17 17 19 19 19 18 19 19 15 14 13 12 14 15 16 16 14 16 13 13 12 11 9 8 9 8 5 6 4 6 5 7 6 7 4 4 4 6 8 9 9 9 9
15 18 20 20 20 19 17 19 18 14 13 14 16 14 17 17 14 12 13 11 12 10 10 9 14 9 5 5 4 5 5 5 5 5 4 1 1 2 0 8 9 9 9
15 16 17 17 19 18 17 14 15 13 13 14 15 14 17 17 14 13 8 11 10 9 9 8 9 5 7 8 9 4 5 1 4 1 4 4 5 5 7 7 9 8 9
15 16 17 17 15 14 18 16 15 13 13 14 13 14 13 14 13 7 7 6 8 9 9 9 9 5 9 8 5 1 3 8 4 3 4 5 6 6 7 7 6 7 7
17 15 15 17 16 16 18 17 15 16 11 11 12 13 13 11 11 8 8 11 4 9 9 13 13 10 13 9 3 7 10 3 4 4 5 5 5 6 5 4 4 5 7
17 17 15 15 14 15 12 11 11 13 13 10 12 13 13 12 12 10 9 8 12 13 15 11 8 6 8 7 8 4 5 5 4 5 4 4 4 4 5 5 5 5 5
15 15 16 14 15 13 11 10 13 9 10 13 13 13 14 13 13 13 13 11 10 11 11 10 9 7 7 6 5 5 5 4 4 4 4 4 5 5 6 5 6 5 6
14 13 12 13 13 12 12 9 20 13 14 9 10 9 10 13 19 14 12 14 17 16 9 8 7 7 6 6 6 6 6 4 4 4 4 4 6 6 6 5 5 6 6
16 16 13 14 13 14 12 12 10 14 21 16 12 13 12 19 17 15 16 18 17 11 7 7 7 6 5 5 6 5 6 5 3 3 4 5 5 5 3 5 5 5 6
16 20 14 14 13 13 12 12 12 12 10 6 10 8 16 17 18 17 18 15 8 7 6 7 7 7 6 6 6 6 6 5 4 3 4 5 5 5 5 6 6 6 5
14 13 13 14 13 15 13 13 12 12 12 11 10 10 10 15 18 20 18 11 10 8 7 7 7 7 6 6 6 5 5 4 3 3 4 4 4 4 5 4 5 3 4
12 14 13 13 13 14 13 13 15 13 13 11 11 11 11 12 11 13 11 9 8 8 8 8 8 7 6 7 7 6 7 5 5 4 4 5 4 4 5 5 5 5 5
10 11 11 12 13 14 14 14 13 14 14 11 12 12 13 14 14 12 10 9 9 9 9 8 8 8 7 7 7 6 5 5 4 4 4 4 4 4 4 4 4 5 6
12 12 12 12 11 12 14 14 15 16 16 14 13 13 10 12 10 11 10 9 8 8 8 7 8 8 8 7 7 6 6 5 5 4 5 4 4 4 3 3 4 4 5
11 12 11 11 12 13 15 15 15 15 15 14 14 15 11 10 11 11 11 10 9 9 8 8 8 8 7 7 6 5 6 5 4 4 5 5 4 4 3 3 3 5 6
11 12 13 11 11 14 14 13 13 13 16 14 13 13 13 12 12 13 11 10 10 9 8 8 8 10 9 7 6 5 5 5 5 4 5 6 6 4 4 4 4 4 4
10 11 11 12 14 12 13 14 14 15 14 14 13 11 13 12 12 12 12 10 10 10 10 9 8 11 11 10 9 9 8 6 3 4 3 5 6 4 4 4 3 4 4
11 10 8 11 12 13 13 13 14 12 13 11 11 10 14 13 13 12 12 12 10 10 11 9 11 12 13 10 11 10 5 4 2 5 1 4 4 4 4 4 2 3 3
Wind_Direction
196 197 195 194 191 181 152 165 158 151 152 156 151 157 144 153 153 147 137 131 131 129 125 123 112 161 99 107 68 11 348 341 319 9 17 27 343 356 359 359 359 355 29
196 189 191 185 183 161 152 151 152 152 157 155 156 156 154 155 154 146 151 131 138 140 130 127 135 123 139 79 79 2 14 30 335 341 28 354 8 16 1 7 353 355 342
192 185 172 160 161 160 148 141 145 142 155 163 157 161 158 159 151 157 140 135 137 128 123 128 122 126 84 67 24 343 46 23 2 349 357 9 357 14 3 12 6 351 7
176 166 160 164 165 152 149 137 138 151 148 168 164 164 162 160 151 153 139 131 134 123 119 112 102 96 90 79 59 37 50 306 18 354 10 11 15 9 8 4 358 358 21
172 156 158 158 147 143 140 139 151 159 154 164 170 168 158 160 151 150 139 135 135 124 116 114 79 67 57 31 346 22 334 344 12 11 9 31 21 7 6 353 359 352 16
161 161 141 141 146 140 137 148 154 152 162 156 172 172 157 169 114 133 137 136 134 121 123 114 117 141 99 68 46 44 29 8 41 2 33 24 19 5 6 354 360 350 357
159 155 155 144 146 146 144 151 152 150 159 152 167 166 169 129 131 130 124 138 127 119 127 125 127 100 165 109 129 118 88 74 41 16 32 28 7 1 349 351 355 339 358
176 161 160 153 147 147 144 147 149 150 162 156 166 166 146 143 144 133 124 132 124 123 121 111 104 106 84 77 122 107 88 68 42 57 37 35 25 355 348 328 332 328 10
190 163 166 155 151 150 149 148 141 154 152 154 166 155 147 151 149 141 147 137 126 129 121 99 107 101 52 331 142 124 114 115 121 115 139 207 233 282 341 343 358 7 2
175 164 164 162 152 150 149 151 149 158 151 160 158 151 148 153 154 160 158 136 138 131 120 108 55 79 57 4 142 151 122 83 65 70 64 147 224 104 351 16 358 13 9
156 159 161 158 157 151 143 147 138 144 156 154 151 145 157 153 162 168 166 144 141 147 136 124 99 69 70 45 9 80 92 107 156 126 76 40 32 49 47 31 14 17 18
153 154 154 152 148 142 142 140 132 130 155 150 145 153 149 153 154 173 149 134 143 137 131 109 109 108 76 50 80 338 245 271 92 81 59 44 34 25 42 38 28 28 49
149 143 148 147 147 143 142 154 141 141 151 153 161 155 151 154 158 113 116 110 116 132 119 98 121 142 126 106 105 253 249 113 89 78 58 52 43 51 6 27 58 165 125
149 139 136 138 136 135 141 147 146 151 148 158 171 160 158 153 154 159 145 131 104 101 118 131 122 104 69 110 174 198 71 51 47 66 58 54 60 55 50 21 28 23 25
146 146 141 145 139 136 130 151 150 150 159 172 177 164 165 163 164 158 159 160 145 138 136 145 166 166 154 136 131 122 118 122 81 64 48 41 44 49 55 27 30 26 32
141 149 141 143 143 133 131 102 58 73 73 82 110 159 156 136 134 140 135 116 120 146 167 160 160 161 157 147 139 125 117 95 73 67 50 44 52 37 42 35 35 33 30
146 151 145 147 143 141 142 133 111 63 58 46 72 93 109 135 126 121 123 127 145 175 170 157 159 154 149 148 139 120 105 88 96 77 62 50 54 73 43 40 30 35 43
148 153 153 146 153 145 147 130 125 126 128 114 39 97 114 124 125 127 127 127 163 225 169 158 156 150 153 145 134 128 127 133 115 104 77 66 65 62 65 43 31 25 39
149 154 154 149 150 150 140 134 130 135 136 133 129 100 105 122 132 140 159 164 173 166 159 160 150 151 149 141 128 123 122 98 99 108 86 75 64 67 64 57 110 47 332
150 143 147 146 145 147 149 143 138 132 133 140 145 138 140 141 146 162 185 172 164 159 158 155 150 149 146 140 134 139 131 166 143 126 95 85 73 61 71 65 33 44 44
136 139 137 143 149 146 143 143 139 140 141 152 147 152 156 161 162 172 170 169 162 157 160 154 151 144 145 152 151 141 148 135 130 127 114 95 89 90 85 76 69 61 21
142 140 141 145 143 147 137 140 146 147 151 148 150 151 177 171 162 165 166 158 155 153 148 156 141 153 150 150 150 149 149 140 136 134 120 113 103 92 92 83 77 59 47
138 135 132 137 130 133 140 148 151 145 146 146 150 156 180 160 163 162 157 151 152 146 145 149 146 142 139 139 149 160 147 136 131 135 133 125 115 106 88 70 66 67 63
128 127 126 115 133 147 148 144 149 144 143 151 154 158 165 162 164 156 148 152 150 145 144 146 146 145 138 141 138 133 121 131 138 129 145 124 123 176 106 102 78 58 87
123 112 118 136 143 147 147 144 143 149 149 150 156 164 158 162 159 150 152 152 145 144 144 139 142 144 147 148 145 112 80 31 52 5 139 119 109 122 98 96 93 83 42
95 100 116 137 142 146 150 152 152 145 148 150 158 164 160 160 157 153 154 148 147 145 145 148 145 145 144 139 112 92 89 67 126 357 357 139 144 126 113 109 104 96 74